Marfa, TX

5:53 PM CST on December 02, 2016 (GMT -0600)
Marfa Municipal

Weather History for KMRF - February, 2012

Change the Weather History Date:

Monday, February 20, 2012

  Actual Average Record
Temperature  
Mean Temperature 47 °F -  
Max Temperature 62 °F 59 °F 81 °F (2016)
Min Temperature 32 °F 29 °F -2 °F (1998)
Degree Days  
Heating Degree Days 18    
Moisture  
Dew Point 18 °F    
Average Humidity 36    
Maximum Humidity 81    
Minimum Humidity 14    
Precipitation  
Precipitation 0.00 in - - ()
Sea Level Pressure  
Sea Level Pressure 30.03 in    
Wind  
Wind Speed 10 mph (West)    
Max Wind Speed 26 mph    
Max Gust Speed 34 mph    
Visibility 10 miles    
Events      
Averages and records for this station are not official NWS values.
T = Trace of Precipitation, MM = Missing Value Source: NWS Daily Summary

Daily Weather History Graph

Daily Weather History Graph

Search for Another Location

Airport or City:

Trip Planner

Search our weather history database for the weather conditions in past years. The results will help you decide how hot, cold, wet, or windy it might be!

Date:

Astronomy

Feb. 20, 2012 Rise Set
Actual Time 7:32 AM CST 6:47 PM CST
Civil Twilight 7:07 AM CST 7:12 PM CST
Nautical Twilight 6:39 AM CST 7:40 PM CST
Astronomical Twilight 6:11 AM CST 8:08 PM CST
Moon 6:27 AM CST (2/20) 5:55 PM CST (2/20)
Length of Visible Light 12h 04m
Length of Day
11h 15m
Waning Crescent, 1% of the Moon is Illuminated
Feb 20
Waning Crescent
Feb 21
New
Feb 29
First Quarter
Mar 8
Full
Mar 14
Last Quarter

Hourly Weather History & Observations

Time (CST) Temp. Windchill Dew Point Humidity Pressure Visibility Wind Dir Wind Speed Gust Speed Precip Events Conditions
12:15 AM 35.6 °F 29.9 °F 28.4 °F 75% 29.94 in 10.0 mi WNW 6.9 mph - N/A   Clear
12:35 AM 35.6 °F - 26.6 °F 70% 29.94 in 10.0 mi Calm Calm - N/A   Clear
12:55 AM 33.8 °F 28.6 °F 26.6 °F 75% 29.94 in 10.0 mi WNW 5.8 mph - N/A   Clear
1:15 AM 33.8 °F 29.6 °F 28.4 °F 81% 29.94 in 10.0 mi WNW 4.6 mph - N/A   Clear
1:35 AM 35.6 °F 28.6 °F 26.6 °F 70% 29.94 in 10.0 mi WNW 9.2 mph - N/A   Clear
1:55 AM 37.4 °F 30.8 °F 26.6 °F 65% 29.94 in 10.0 mi West 9.2 mph - N/A   Clear
2:15 AM 37.4 °F 29.8 °F 24.8 °F 60% 29.95 in 10.0 mi West 11.5 mph - N/A   Clear
2:35 AM 41.0 °F 35.2 °F 21.2 °F 45% 29.94 in 10.0 mi West 9.2 mph - N/A   Clear
2:55 AM 39.2 °F 32.5 °F 19.4 °F 45% 29.94 in 10.0 mi WNW 10.4 mph - N/A   Clear
3:15 AM 39.2 °F 31.2 °F 19.4 °F 45% 29.94 in 10.0 mi WNW 13.8 mph - N/A   Clear
3:35 AM 39.2 °F 33.0 °F 19.4 °F 45% 29.94 in 10.0 mi WNW 9.2 mph - N/A   Clear
3:55 AM 37.4 °F 30.3 °F 17.6 °F 45% 29.94 in 10.0 mi WNW 10.4 mph - N/A   Clear
4:15 AM 37.4 °F 30.3 °F 17.6 °F 45% 29.95 in 10.0 mi WNW 10.4 mph - N/A   Clear
4:35 AM 37.4 °F 32.1 °F 19.4 °F 48% 29.95 in 10.0 mi WNW 6.9 mph - N/A   Clear
4:55 AM 37.4 °F 33.8 °F 17.6 °F 45% 29.96 in 10.0 mi WNW 4.6 mph - N/A   Clear
5:15 AM 41.0 °F 35.2 °F 19.4 °F 42% 29.97 in 10.0 mi West 9.2 mph - N/A   Clear
5:35 AM 41.0 °F 36.4 °F 19.4 °F 42% 29.98 in 10.0 mi West 6.9 mph - N/A   Clear
5:55 AM 37.4 °F 30.3 °F 19.4 °F 48% 29.99 in 10.0 mi West 10.4 mph - N/A   Clear
6:15 AM 37.4 °F 30.8 °F 17.6 °F 45% 30.00 in 10.0 mi West 9.2 mph - N/A   Clear
6:35 AM 35.6 °F 28.6 °F 19.4 °F 52% 30.01 in 10.0 mi West 9.2 mph - N/A   Clear
6:55 AM 35.6 °F 29.9 °F 17.6 °F 48% 30.01 in 10.0 mi West 6.9 mph - N/A   Clear
7:15 AM 33.8 °F - 17.6 °F 52% 30.02 in 10.0 mi Calm Calm - N/A   Clear
7:35 AM 32.0 °F - 19.4 °F 60% 30.03 in 10.0 mi Calm Calm - N/A   Clear
7:55 AM 35.6 °F 31.7 °F 17.6 °F 48% 30.04 in 10.0 mi WSW 4.6 mph - N/A   Clear
8:15 AM 35.6 °F 31.7 °F 19.4 °F 52% 30.05 in 10.0 mi WSW 4.6 mph - N/A   Clear
8:35 AM 39.2 °F 33.0 °F 21.2 °F 49% 30.06 in 10.0 mi WSW 9.2 mph - N/A   Clear
8:55 AM 44.6 °F 39.2 °F 21.2 °F 39% 30.06 in 10.0 mi SW 10.4 mph - N/A   Clear
9:15 AM 46.4 °F 41.1 °F 21.2 °F 37% 30.07 in 10.0 mi WSW 11.5 mph - N/A   Clear
9:35 AM 48.2 °F - 21.2 °F 34% 30.08 in 10.0 mi SW 12.7 mph - N/A   Clear
9:55 AM 51.8 °F - 19.4 °F 28% 30.08 in 10.0 mi SW 12.7 mph - N/A   Clear
10:15 AM 51.8 °F - 19.4 °F 28% 30.09 in 10.0 mi WSW 15.0 mph - N/A   Clear
10:35 AM 53.6 °F - 19.4 °F 26% 30.10 in 10.0 mi SW 18.4 mph - N/A   Clear
10:55 AM 55.4 °F - 17.6 °F 23% 30.11 in 10.0 mi WSW 17.3 mph 25.3 mph N/A   Clear
11:15 AM 57.2 °F - 17.6 °F 21% 30.11 in 10.0 mi WSW 21.9 mph 27.6 mph N/A   Clear
11:35 AM 57.2 °F - 17.6 °F 21% 30.11 in 10.0 mi West 23.0 mph 27.6 mph N/A   Clear
11:55 AM 59.0 °F - 17.6 °F 20% 30.11 in 10.0 mi West 26.5 mph 31.1 mph N/A   Clear
12:15 PM 60.8 °F - 15.8 °F 17% 30.11 in 10.0 mi WSW 19.6 mph 29.9 mph N/A   Clear
12:35 PM 59.0 °F - 15.8 °F 19% 30.11 in 10.0 mi West 19.6 mph 28.8 mph N/A   Clear
12:55 PM 60.8 °F - 15.8 °F 17% 30.10 in 10.0 mi WSW 25.3 mph 28.8 mph N/A   Clear
1:15 PM 60.8 °F - 15.8 °F 17% 30.09 in 10.0 mi West 25.3 mph 29.9 mph N/A   Clear
1:35 PM 60.8 °F - 14.0 °F 16% 30.08 in 10.0 mi WSW 24.2 mph 34.5 mph N/A   Clear
2:15 PM 60.8 °F - 14.0 °F 16% 30.06 in 10.0 mi WSW 21.9 mph 32.2 mph N/A   Clear
2:35 PM 60.8 °F - 14.0 °F 16% 30.06 in 10.0 mi West 21.9 mph 27.6 mph N/A   Clear
2:55 PM 62.6 °F - 14.0 °F 15% 30.06 in 10.0 mi WSW 25.3 mph 29.9 mph N/A   Clear
3:15 PM 62.6 °F - 14.0 °F 15% 30.06 in 10.0 mi West 24.2 mph 29.9 mph N/A   Clear
3:35 PM 62.6 °F - 14.0 °F 15% 30.07 in 10.0 mi West 18.4 mph 28.8 mph N/A   Clear
3:55 PM 62.6 °F - 12.2 °F 14% 30.07 in 10.0 mi West 11.5 mph 23.0 mph N/A   Clear
4:15 PM 62.6 °F - 12.2 °F 14% 30.07 in 10.0 mi West 19.6 mph 24.2 mph N/A   Clear
4:35 PM 62.6 °F - 14.0 °F 15% 30.07 in 10.0 mi West 10.4 mph 24.2 mph N/A   Clear
4:55 PM 60.8 °F - 14.0 °F 16% 30.07 in 10.0 mi West 16.1 mph 23.0 mph N/A   Clear
5:15 PM 60.8 °F - 14.0 °F 16% 30.08 in 10.0 mi West 15.0 mph 21.9 mph N/A   Clear
5:35 PM 60.8 °F - 14.0 °F 16% 30.08 in 10.0 mi WNW 15.0 mph 18.4 mph N/A   Clear
5:55 PM 60.8 °F - 14.0 °F 16% 30.08 in 10.0 mi West 13.8 mph - N/A   Clear
6:15 PM 59.0 °F - 12.2 °F 16% 30.09 in 10.0 mi West 5.8 mph - N/A   Clear
6:35 PM 57.2 °F - 12.2 °F 17% 30.10 in 10.0 mi WNW 9.2 mph - N/A   Clear
6:55 PM 53.6 °F - 12.2 °F 19% 30.10 in 10.0 mi WNW 9.2 mph - N/A   Clear
7:15 PM 50.0 °F - 12.2 °F 22% 30.12 in 10.0 mi Calm Calm - N/A   Clear
7:35 PM 50.0 °F - 14.0 °F 24% 30.13 in 10.0 mi Calm Calm - N/A   Clear
7:55 PM 44.6 °F 43.1 °F 12.2 °F 27% 30.13 in 10.0 mi NNW 3.5 mph - N/A   Clear
8:15 PM 41.0 °F 35.8 °F 14.0 °F 33% 30.14 in 10.0 mi NE 8.1 mph - N/A   Clear
8:35 PM 39.2 °F 35.0 °F 15.8 °F 39% 30.14 in 10.0 mi NNE 5.8 mph - N/A   Clear
9:15 PM 37.4 °F 32.8 °F 15.8 °F 41% 30.15 in 10.0 mi NNW 5.8 mph - N/A   Clear
9:35 PM 37.4 °F - 17.6 °F 45% 30.16 in 10.0 mi Calm Calm - N/A   Clear
9:55 PM 35.6 °F 29.9 °F 14.0 °F 41% 30.16 in 10.0 mi NW 6.9 mph - N/A   Clear
10:15 PM 35.6 °F 29.2 °F 12.2 °F 38% 30.17 in 10.0 mi NNW 8.1 mph - N/A   Clear
10:35 PM 33.8 °F 27.0 °F 12.2 °F 41% 30.17 in 10.0 mi NNW 8.1 mph - N/A   Clear
10:55 PM 35.6 °F 29.2 °F 12.2 °F 38% 30.17 in 10.0 mi NNW 8.1 mph - N/A   Clear
11:15 PM 33.8 °F 25.3 °F 12.2 °F 41% 30.17 in 10.0 mi NNW 11.5 mph - N/A   Clear
11:35 PM 33.8 °F 26.4 °F 12.2 °F 41% 30.18 in 10.0 mi NNW 9.2 mph - N/A   Clear
11:55 PM 33.8 °F 25.8 °F 12.2 °F 41% 30.18 in 10.0 mi NNW 10.4 mph - N/A   Clear